Regional Weather Roundup
Issued by NWS Kansas City/Pleasant Hill, MO

Home | Current Version | Previous Version | Graphics & Text | Print | Product List | Glossary Off
Versions: 1 2 3 4 5 6 7 8 9 10 11 12 13 14 15 16 17 18 19 20 21 22 23 24 25 26 27 28 29 30 31 32 33 34 35 36 37 38 39 40 41 42 43 44 45 46 47 48 49 50

000
ASUS43 KEAX 052204
RWREAX

WEATHER ROUNDUP FOR EASTERN KANSAS AND NORTHWEST MISSOURI
NATIONAL WEATHER SERVICE KANSAS CITY/PLEASANT HILL MO
500 PM CDT SUN JUL 05 2015

KSZ040-057-103>105-MOZ028-029-037-043-052300-
...KANSAS CITY METROPOLITAN AREA...

CITY           SKY/WX    TMP DP  RH WIND       PRES   REMARKS
K.C. INTL      PTSUNNY   88  75  65 SE15      29.91F HX  97
K.C. DOWNTOWN  MOSUNNY   89  74  60 S12       29.90F HX  98
LEES SUMMIT    MOSUNNY   88  73  61 S10G17    29.92F HX  95
OLATHE - IXD   MOSUNNY   89  75  63 S15       29.92F HX  99
OLATHE - OJC   MOSUNNY   87  75  67 S12       29.91F HX  96
LAWRENCE       MOSUNNY   91  73  55 S14       29.88F HX  99

$$

MOZ001>008-011>017-020>025-030>033-038>040-044>046-053-054-052300-
...NORTHERN AND CENTRAL MISSOURI...

CITY           SKY/WX    TMP DP  RH WIND       PRES   REMARKS
ST. JOSEPH     MOSUNNY   89  75  63 S15       29.88F HX  99
MOSBY          MOCLDY    88  72  58 SE10      29.91S HX  94
HARRISONVILLE  MOSUNNY   90  75  62 SE12      29.95F HX 100
WHITEMAN AFB   SUNNY     88  75  65 S9        29.93F HX  97
CLINTON        SUNNY     90  75  62 SE10      29.95F HX 100
SEDALIA        MOSUNNY   88  73  61 SE9       29.97F HX  95
WARSAW         NOT AVBL
CHILLICOTHE      N/A     89  72  56 S10       29.94S HX  96
KIRKSVILLE     PTSUNNY   85  69  58 S13       29.98F

$$

MOZ041-047>049-056>058-063>065-088>090-097-052300-
...EASTERN AND SOUTHERN MISSOURI...

CITY           SKY/WX    TMP DP  RH WIND       PRES   REMARKS
ST. LOUIS INTL MOSUNNY   88  64  44 S9        30.01F
SPIRIT OF STL  MOSUNNY   85  69  58 VRB7      30.00F
COLUMBIA       PTSUNNY   86  71  60 SE8       29.99F HX  91
JEFFERSON CITY PTSUNNY   85  69  58 S9        29.97F
ROLLA          MOSUNNY   84  69  60 S8        30.00F
LEBANON        MOSUNNY   84  72  65 SE12      30.02F
OSAGE BEACH    MOSUNNY   86  70  58 SE7       29.99F HX  90
SPRINGFIELD    PTSUNNY   81  70  69 SE24      29.98F THUNDER
BRANSON        PTSUNNY   72  68  88 E5        30.04S
JOPLIN         MOSUNNY   89  75  63 S8        29.94F HX  99
WEST PLAINS    PTSUNNY   84  71  65 S9        30.05F

$$

IAZ060-094-KSZ022-034>040-054-083-096-NEZ052-066-093-052300-
...KANSAS...SOUTHEAST NEBRASKA AND IOWA...

CITY           SKY/WX    TMP DP  RH WIND       PRES   REMARKS
TOPEKA         MOSUNNY   91  73  55 S15       29.87F HX  99
MANHATTAN      SUNNY     97  68  38 S16G22    29.82F HX 102
EMPORIA        SUNNY     92  72  51 S18G25    29.88F HX  99
CHANUTE        MOSUNNY   92  74  55 S10       29.91F HX 101
WICHITA        MOSUNNY   99  62  29 S21G28    29.84F HX 100
OMAHA          PTSUNNY   90  74  59 SE22G30   29.81F HX  99
LINCOLN        SUNNY     92  73  53 S17G28    29.80F HX 100
FALLS CITY     MOSUNNY   91  73  55 S14G25    29.85S HX  99
LAMONI         PTSUNNY   85  71  63 SE10      29.93S HX  90
DES MOINES     PTSUNNY   86  69  56 SE15      29.91F HX  90

$$




USA.gov is the U.S. government's official web portal to all federal, state and local government web resources and services.